User: anonymous   Login
Location: Dompnac
(44.5644°N, 4.1026°E)
Time: 16:28:08
(UTC+00:00)
Language:

Okean-O - Orbit

View from above orbital plane
View from above orbital plane
View from above satellite
View from above satellite

Ground track
Ground track

The orbit data is extracted from the following two-line orbital elements,

1 25860U 99039A   20334.50773752  .00000117  00000-0  24325-4 0  9998
2 25860  98.2033 356.2928 0001819  83.1076 277.0340 14.76693842149969
Epoch (UTC): 29 November 2020 12:11:08
Eccentricity: 0.0001819
inclination: 98.2033°
perigee height: 638 km
apogee height: 641 km
right ascension of ascending node: 356.2928°
argument of perigee: 83.1076°
revolutions per day: 14.76693842
mean anomaly at epoch: 277.0340°
orbit number at epoch: 14996

The dashed part of the orbit path shows where the satellite is in the earth's shadow,  

DLR